Этрек

Туркменистан     37°39′46″N   54°46′07″E
темп.,
°C
ветер,
м/с
пор.,
м/с
влажн.,
%
обл.,
%
осадки,
мм/ч
давл.,
гПа
погр.,
м
12 апреля, пн
пн1223:00+16юз5571100 0.1 1016443
02:00+16ю3366100 0.0 1017334
05:00+15ю2270100 0.1 1017333
08:00+16св346877 0.0 1017246
11:00+21всв33501 0.0 1016621
14:00+27ссв45350 0.0 10151130
17:00+29с44230 0.0 10131485
20:00+26ссз56251 0.0 101590
13 апреля, вт
вт1323:00+22всв582715 0.0 1015133
02:00+20всв224423 0.0 101416
05:00+19всв333911 0.0 101520
08:00+18ю455947 0.0 1017148
11:00+22ююз444650 0.0 1017550
14:00+26юз3236100 0.0 10161058
17:00+27ююз32310 0.0 10141507
20:00+24юз663926 0.0 1015309
14 апреля, ср
ср1423:00+19зюз33500 0.0 1016207
02:00+17юз33562 0.0 1015109
05:00+16ююв336597 0.0 1013107
08:00+16всв22625 0.0 1013105
11:00+23ссв3437100 0.0 1011583
14:00+29ссз4419100 0.0 10091120
17:00+30зсз4316100 0.0 10081046
20:00+22з91142100 0.0 1010353
15 апреля, чт
чт1523:00+19юз5650100 0.0 1013321
02:00+16ююз67634 0.0 1013313
05:00+15ююз57740 0.1 1014296
08:00+15ююз45724 0.0 1016299
11:00+20юз45445 0.0 1016637
14:00+25з33295 0.0 10141351
17:00+26зсз432593 0.0 10121670
20:00+23сз67300 0.0 1013319
16 апреля, пт
пт1623:00+19зсз34390 0.0 1014167
02:00+17з11447 0.0 101415
05:00+16зсз114690 0.0 101412
08:00+17ююв2248100 0.0 101595
11:00+21ссв2333100 0.0 1014580
14:00+24с552063 0.0 10131088
17:00+26с551733 0.0 10121618
20:00+23сз692618 0.0 1012218